Location: Unspecified
(41.5000°N, 0.0000°E)
Time: 17:42:42
(UTC+00:00)

Tiangong 2 - Visible Passes

Search period start: 20 May 2019 00:00
Search period end: 30 May 2019 00:00
Orbit: 379 x 387 km, 42.8° (Epoch: 20 May)

Date Brightness Start Highest point End Pass type
(mag) Time Alt. Az. Time Alt. Az. Time Alt. Az.
20 May 0.9 20:56:30 10° WSW 20:59:36 63° SSE 21:00:27 41° E visible
21 May 1.6 19:56:43 10° SW 19:59:39 39° SSE 20:02:36 10° E visible
21 May 1.3 21:33:09 10° W 21:36:04 69° NW 21:36:04 69° NW visible
22 May 1.0 20:33:07 10° WSW 20:36:14 88° S 20:39:08 12° ENE visible
22 May 3.1 22:09:55 10° W 22:11:20 24° WNW 22:11:20 24° WNW visible
23 May 1.3 21:09:50 10° W 21:12:58 66° N 21:14:11 33° ENE visible
24 May 1.2 20:09:45 10° W 20:12:53 74° N 20:16:01 10° ENE visible
24 May 1.7 21:46:33 10° WNW 21:49:04 53° WNW 21:49:04 53° WNW visible
25 May 1.3 20:46:30 10° W 20:49:38 68° N 20:51:41 19° E visible
25 May 3.8 22:23:15 10° W 22:23:51 14° W 22:23:51 14° W visible
26 May 0.8 21:23:11 10° WNW 21:26:19 78° SSW 21:26:25 77° SSE visible
27 May 1.1 20:23:07 10° WNW 20:26:15 79° N 20:28:57 13° E visible
27 May 3.3 21:59:58 10° W 22:01:07 19° W 22:01:07 19° W visible
28 May 1.3 20:59:46 10° W 21:02:50 53° SSW 21:03:38 39° SSE visible
29 May 1.0 19:59:40 10° WNW 20:02:48 80° SSW 20:05:56 10° ESE visible
29 May 3.2 21:36:49 10° W 21:38:20 18° SW 21:38:20 18° SW visible
